Regional Weather Roundup
Issued by NWS

Home | Current Version | Previous Version | Text Only | Print | Product List | Glossary On
Versions: 1 2 3 4 5 6 7 8 9 10 11 12 13 14 15 16 17 18 19 20 21 22 23 24 25 26 27 28 29 30 31 32 33 34 35 36 37 38 39 40 41 42 43 44 45 46 47 48 49 50
000
ASUS44 KFWD 291515
RWRTX
NORTH TEXAS HOURLY WEATHER ROUNDUP
NATIONAL WEATHER SERVICE FORT WORTH TX
1000 AM CDT THU SEP 29 2016

NOTE: "FAIR" INDICATES FEW OR NO CLOUDS BELOW 12,000 FEET WITH NO
SIGNIFICANT WEATHER AND/OR OBSTRUCTIONS TO VISIBILITY.

TXZ118-119-291600-
DALLAS/FORT WORTH METROPLEX

CITY           SKY/WX    TMP DP  RH WIND       PRES   REMARKS
DFW AIRPORT    PTSUNNY   68  50  52 N10       30.29R
DALLAS LOVE    PTSUNNY   69  50  50 E9        30.29R
FTW MEACHAM    SUNNY     66  51  58 N13       30.30R
DAL-EXECUTIVE  MOSUNNY   67  51  56 NE10      30.28R
FTW-ALLIANCE   MOSUNNY   65  52  62 N10       30.31R
FTW-NAS-JRB    MOSUNNY   66  50  56 N15       30.31R
FTW-SPINKS     SUNNY     66  52  59 N9        30.31R
ARLINGTON      SUNNY     66  50  56 N10       30.29R
GRAND PRAIRIE  SUNNY     66  50  55 N14       30.31R
ADDISON        MOSUNNY   66  50  55 NE12      30.29R
MESQUITE       SUNNY     66  50  55 N9        30.29R
LANCASTER      MOSUNNY   68  49  49 NE10      30.28R
$$

TXZ091>094-102>105-117-120-121-131>134-291600-
NORTH CENTRAL TEXAS

CITY           SKY/WX    TMP DP  RH WIND       PRES   REMARKS
SHRMAN/DENISON SUNNY     65  52  62 N10       30.32R
GAINESVILLE      N/A     62  49  64 N9        30.34R
BOWIE          SUNNY     63  52  67 N7        30.34R
BRIDGEPORT     SUNNY     63  53  68 N7        30.34R
DECATUR        SUNNY     63  49  60 N9        30.32R
DENTON         MOSUNNY   64  53  67 N12       30.31R
MCKINNEY       SUNNY     66  52  60 NE12      30.29R
GREENVILLE     SUNNY     64  50  59 NE7       30.29R
ROCKWALL       SUNNY     66  51  58 NE12G18   30.27R
TERRELL        SUNNY     67  51  56 NE13      30.27R
WAXAHACHIE     SUNNY     67  53  60 NE8       30.28R
CLEBURNE       SUNNY     66  54  63 NE9       30.31R
GRANBURY       SUNNY     66  53  61 N10       30.32R
$$

TXZ083>090-098>101-113>116-127>130-139>142-154-155-291600-
WESTERN NORTH TEXAS

CITY           SKY/WX    TMP DP  RH WIND       PRES   REMARKS
WICHITA FALLS  MOSUNNY   61  50  67 NE13      30.36R
WF-KICKAPOO    MOSUNNY   64  50  61 N9G20     30.37R
VERNON         MOSUNNY   63  47  55 NE7       30.39R
ABILENE        SUNNY     63  53  70 N8        30.35R
ABILENE-DYESS  SUNNY     62  52  67 N8        30.34R
CISCO          SUNNY     63  52  67 N10       30.33R
BRECKENRIDGE     N/A     65  50  59 NE10      30.34R
GRAHAM         SUNNY     64  52  63 N6        30.33R
MINERAL WELLS  SUNNY     66  51  58 N9        30.31R
STEPHENVILLE   SUNNY     65  49  56 N8G17     30.33R
COMANCHE       SUNNY     65  54  68 N8        30.31R
BROWNWOOD      SUNNY     68  50  52 NE6       30.31R
COLEMAN        SUNNY     66  51  58 NE13      30.32R
$$

TXZ143>147-156>162-174-175-291600-
CENTRAL TEXAS

CITY           SKY/WX    TMP DP  RH WIND       PRES   REMARKS
WACO           SUNNY     70  53  54 N13       30.25R
WACO-MCGREGOR  SUNNY     69  53  56 N16       30.26R
HILLSBORO      SUNNY     67  52  57 NE10G16   30.28R
MEXIA          SUNNY     68  54  60 NE8       30.23R
HEARNE         SUNNY     71  57  62 N7        30.22R
CAMERON        SUNNY     70  56  62 NE10      30.22R
TEMPLE         SUNNY     70  54  56 N13       30.25R
KILLEEN        SUNNY     69  54  58 NE13      30.25R
KILLEEN-SKYLRK SUNNY     70  53  54 N13       30.26R
FORT HOOD      SUNNY     69  53  56 NE12      30.23R
GATESVILLE     SUNNY     70  52  52 N8        30.29R
HAMILTON       SUNNY     67  53  61 N9        30.29R
LAMPASAS       SUNNY     71  57  61 NE9       30.26R
$$

TXZ095>097-106>112-122>126-135>138-148>153-164>167-291600-
EAST TEXAS

CITY           SKY/WX    TMP DP  RH WIND       PRES   REMARKS
PARIS          SUNNY     66  48  52 NE8       30.29R
SULPHUR SPRNGS SUNNY     67  48  49 NE9G18    30.30R
MOUNT PLEASANT SUNNY     67  48  50 NE10G16   30.28R
GILMER         SUNNY     65  49  57 NE10      30.26R
MINEOLA        SUNNY     66  52  59 NE5       30.26R
TYLER          SUNNY     68  49  50 NE17      30.24R
LONGVIEW       SUNNY     67  50  54 NE10      30.24R
MARSHALL       SUNNY     65  49  55 NE8       30.26R
ATHENS         SUNNY     66  50  55 NE12G17   30.24R
PALESTINE      SUNNY     68  53  59 NE10G20   30.23R
JACKSONVILLE   SUNNY     66  53  61 NE10G18   30.25R
HENDERSON      SUNNY     67  51  56 NE13G18   30.24R
CENTER         SUNNY     69  53  56 NE7       30.23R
NACOGDOCHES    SUNNY     68  52  56 NE10G17   30.20R
LUFKIN         SUNNY     68  53  58 NE12G20   30.19R
$$

SUPPLEMENTAL OBSERVATIONS (CENTRAL)

CITY           SKY/WX    TMP DP  RH WIND       PRES   REMARKS
DENISON DAM      N/A     63  48  59 NE10        N/A
CADDO GRASSLND   N/A     66  50  55 N5          N/A
PAT MAYSE LAKE   N/A     64  50  59 N9          N/A
GREENVILLE       N/A     68  50  52 NE8         N/A
CEDAR HILL       N/A     68  50  52 NE9         N/A
MCGREGOR         N/A     70  54  56 NE12        N/A
TEMPLE           N/A     73  52  46 N12G21      N/A
$$

SUPPLEMENTAL OBSERVATIONS (WEST)

CITY           SKY/WX    TMP DP  RH WIND       PRES   REMARKS
MILLERS CREEK    N/A     64  52  63 NE9         N/A
POSSUM KINGDOM   N/A     66  50  55 NE7         N/A
LBJ GRASSLAND    N/A     66  50  55 VRB7        N/A
GRANBURY         N/A     66  52  59 N8          N/A
HAMBY            N/A     64  52  63 NE7         N/A
IVIE RESERVOIR   N/A     70  50  49 NE10        N/A
COLORADO BEND    N/A     70  52  52 E7          N/A
$$

SUPPLEMENTAL OBSERVATIONS (EAST)

CITY           SKY/WX    TMP DP  RH WIND       PRES   REMARKS
CLARKSVILLE      N/A     68  48  49 NE6         N/A
TEXARKANA        N/A     66  48  52 NE7         N/A
LINDEN           N/A     70  50  49 NE2         N/A
CADDO LAKE       N/A     70  50  49 NE5         N/A
GILMER           N/A     70  52  52 NE6         N/A
HENDERSON        N/A     68  50  52 NE10        N/A
LUFKIN           N/A     70  54  56 MISG        N/A
N SABINE NF      N/A     66  55  68 MISG        N/A
S SABINE NF      N/A     70  52  52 N6G14       N/A
$$

SUPPLEMENTAL OBSERVATIONS ARE A COLLECTION OF AUTOMATED INSTRUMENTS
THAT ARE MAINTAINED BY A VARIETY OF FEDERAL AND STATE AGENCIES.
CERTAIN ELEMENTS...SUCH AS HUMIDITY VALUES AND SUSTAINED WIND
SPEEDS...MAY BE APPROXIMATED.





USA.gov is the U.S. government's official web portal to all federal, state and local government web resources and services.